Weather History for KBFW - September, 2013

Change the Weather History Date:

Thursday, September 5, 2013

  Actual Average Record
Temperature  
Mean Temperature 52 °F -  
Max Temperature 68 °F 69 °F 89 °F (1998)
Min Temperature 37 °F 44 °F 30 °F (2011)
Degree Days  
Heating Degree Days 12    
Growing Degree Days 2 (Base 50)    
Moisture  
Dew Point 43 °F    
Average Humidity 72    
Maximum Humidity 93    
Minimum Humidity 40    
Precipitation  
Precipitation 0.00 in - - ()
Sea Level Pressure  
Sea Level Pressure 30.21 in    
Wind  
Wind Speed 0 mph (North)    
Max Wind Speed 0 mph    
Max Gust Speed -    
Visibility 10 miles    
Events      
Averages and records for this station are not official NWS values.
T = Trace of Precipitation, MM = Missing Value Source: NWS Daily Summary

Daily Weather History Graph

Daily Weather History Graph

Search for Another Location

Airport or City:

Trip Planner

Search our weather history database for the weather conditions in past years. The results will help you decide how hot, cold, wet, or windy it might be!

Date:

Astronomy

Sep. 05, 2013 Rise Set
Actual Time 6:30 AM CDT 7:37 PM CDT
Civil Twilight 5:58 AM CDT 8:08 PM CDT
Nautical Twilight 5:21 AM CDT 8:46 PM CDT
Astronomical Twilight 4:41 AM CDT 9:25 PM CDT
Moon 6:46 AM CDT (9/5) 7:22 PM CDT (9/5)
Length of Visible Light 14h 09m
Length of Day
13h 06m
New Moon, 0% of the Moon is Illuminated
Sep 5
New Moon
Sep 12
First Quarter
Sep 19
Full
Sep 26
Last Quarter
Oct 4
New

Hourly Weather History & Observations

Time (CDT) Temp. Dew Point Humidity Pressure Visibility Wind Dir Wind Speed Gust Speed Precip Events Conditions
12:13 AM 44.6 °F 39.2 °F 81% 30.19 in 10.0 mi Calm Calm - N/A   Clear
12:33 AM 42.8 °F 39.2 °F 87% 30.19 in 10.0 mi Calm Calm - N/A   Clear
12:53 AM 44.6 °F 39.2 °F 81% 30.19 in 10.0 mi Calm Calm - N/A   Clear
1:13 AM 44.6 °F 37.4 °F 76% 30.20 in 10.0 mi Calm Calm - N/A   Clear
1:33 AM 42.8 °F 37.4 °F 81% 30.20 in 10.0 mi Calm Calm - N/A   Clear
1:53 AM 41.0 °F 37.4 °F 87% 30.21 in 10.0 mi Calm Calm - N/A   Clear
2:13 AM 42.8 °F 39.2 °F 87% 30.21 in 10.0 mi Calm Calm - N/A   Clear
2:33 AM 41.0 °F 37.4 °F 87% 30.22 in 10.0 mi Calm Calm - N/A   Clear
2:53 AM 39.2 °F 35.6 °F 87% 30.22 in 10.0 mi Calm Calm - N/A   Clear
3:13 AM 39.2 °F 35.6 °F 87% 30.23 in 10.0 mi Calm Calm - N/A   Clear
3:33 AM 39.2 °F 37.4 °F 93% 30.23 in 10.0 mi Calm Calm - N/A   Clear
3:53 AM 37.4 °F 35.6 °F 93% 30.23 in 10.0 mi Calm Calm - N/A   Clear
4:13 AM 39.2 °F 35.6 °F 87% 30.23 in 10.0 mi Calm Calm - N/A   Clear
4:33 AM 37.4 °F 35.6 °F 93% 30.23 in 10.0 mi Calm Calm - N/A   Clear
4:53 AM 37.4 °F 35.6 °F 93% 30.24 in 10.0 mi Calm Calm - N/A   Clear
5:13 AM 39.2 °F 37.4 °F 93% 30.24 in 10.0 mi Calm Calm - N/A   Clear
5:33 AM 37.4 °F 33.8 °F 87% 30.25 in 10.0 mi Calm Calm - N/A   Clear
5:53 AM 39.2 °F 35.6 °F 87% 30.25 in 10.0 mi Calm Calm - N/A   Clear
6:13 AM 39.2 °F 37.4 °F 93% 30.25 in 10.0 mi Calm Calm - N/A   Clear
6:33 AM 39.2 °F 35.6 °F 87% 30.25 in 10.0 mi Calm Calm - N/A   Clear
6:53 AM 37.4 °F 33.8 °F 87% 30.26 in 10.0 mi Calm Calm - N/A   Clear
7:13 AM 39.2 °F 35.6 °F 87% 30.27 in 10.0 mi Calm Calm - N/A   Clear
7:33 AM 42.8 °F 37.4 °F 81% 30.27 in 10.0 mi Calm Calm - N/A   Clear
7:53 AM 44.6 °F 39.2 °F 81% 30.28 in 10.0 mi Calm Calm - N/A   Clear
8:13 AM 48.2 °F 42.8 °F 82% 30.28 in 10.0 mi Calm Calm - N/A   Clear
8:33 AM 53.6 °F 42.8 °F 67% 30.28 in 10.0 mi Calm Calm - N/A   Clear
8:53 AM 57.2 °F 42.8 °F 59% 30.28 in 10.0 mi Calm Calm - N/A   Clear
9:13 AM 59.0 °F 44.6 °F 59% 30.28 in 10.0 mi Calm Calm - N/A   Clear
9:33 AM 59.0 °F 44.6 °F 59% 30.27 in 10.0 mi Calm Calm - N/A   Clear
9:53 AM 60.8 °F 44.6 °F 55% 30.27 in 10.0 mi Calm Calm - N/A   Clear
10:13 AM 62.6 °F 44.6 °F 52% 30.27 in 10.0 mi Calm Calm - N/A   Clear
10:33 AM 62.6 °F 44.6 °F 52% 30.27 in 10.0 mi Calm Calm - N/A   Clear
10:53 AM 62.6 °F 46.4 °F 55% 30.27 in 10.0 mi Calm Calm - N/A   Clear
11:13 AM 62.6 °F 46.4 °F 55% 30.27 in 10.0 mi Calm Calm - N/A   Clear
11:33 AM 62.6 °F 46.4 °F 55% 30.27 in 10.0 mi Calm Calm - N/A   Clear
11:53 AM 62.6 °F 46.4 °F 55% 30.27 in 10.0 mi Calm Calm - N/A   Clear
12:13 PM 62.6 °F 46.4 °F 55% 30.26 in 10.0 mi Calm Calm - N/A   Clear
12:33 PM 64.4 °F 46.4 °F 52% 30.26 in 10.0 mi Calm Calm - N/A   Clear
12:53 PM 64.4 °F 46.4 °F 52% 30.25 in 10.0 mi Calm Calm - N/A   Clear
1:13 PM 64.4 °F 46.4 °F 52% 30.25 in 10.0 mi Calm Calm - N/A   Clear
1:33 PM 66.2 °F 46.4 °F 49% 30.24 in 10.0 mi Calm Calm - N/A   Clear
1:53 PM 66.2 °F 42.8 °F 43% 30.23 in 10.0 mi Calm Calm - N/A   Clear
2:13 PM 66.2 °F 42.8 °F 43% 30.22 in 10.0 mi Calm Calm - N/A   Clear
2:33 PM 66.2 °F 44.6 °F 46% 30.22 in 10.0 mi Calm Calm - N/A   Clear
2:53 PM 66.2 °F 44.6 °F 46% 30.21 in 10.0 mi Calm Calm - N/A   Clear
3:13 PM 68.0 °F 42.8 °F 40% 30.20 in 10.0 mi Calm Calm - N/A   Clear
3:33 PM 68.0 °F 44.6 °F 43% 30.20 in 10.0 mi Calm Calm - N/A   Clear
3:53 PM 68.0 °F 44.6 °F 43% 30.20 in 10.0 mi Calm Calm - N/A   Clear
4:13 PM 68.0 °F 46.4 °F 46% 30.19 in 10.0 mi Calm Calm - N/A   Clear
4:33 PM 68.0 °F 46.4 °F 46% 30.19 in 10.0 mi Calm Calm - N/A   Clear
4:53 PM 66.2 °F 48.2 °F 52% 30.18 in 10.0 mi Calm Calm - N/A   Clear
5:13 PM 66.2 °F 48.2 °F 52% 30.18 in 10.0 mi Calm Calm - N/A   Clear
5:33 PM 66.2 °F 51.8 °F 60% 30.17 in 10.0 mi Calm Calm - N/A   Clear
5:53 PM 64.4 °F 51.8 °F 64% 30.17 in 10.0 mi Calm Calm - N/A   Clear
6:13 PM 62.6 °F 51.8 °F 68% 30.17 in 10.0 mi Calm Calm - N/A   Clear
6:33 PM 60.8 °F 50.0 °F 68% 30.16 in 10.0 mi Calm Calm - N/A   Clear
6:53 PM 60.8 °F 50.0 °F 68% 30.16 in 10.0 mi Calm Calm - N/A   Clear
7:13 PM 59.0 °F 51.8 °F 77% 30.15 in 10.0 mi Calm Calm - N/A   Clear
7:33 PM 57.2 °F 51.8 °F 82% 30.14 in 10.0 mi Calm Calm - N/A   Clear
7:53 PM 55.4 °F 50.0 °F 82% 30.14 in 10.0 mi Calm Calm - N/A   Clear
8:13 PM 53.6 °F 50.0 °F 88% 30.14 in 10.0 mi Calm Calm - N/A   Clear
8:33 PM 53.6 °F 48.2 °F 82% 30.14 in 10.0 mi Calm Calm - N/A   Clear
8:53 PM 51.8 °F 48.2 °F 88% 30.14 in 10.0 mi Calm Calm - N/A   Clear
9:13 PM 51.8 °F 46.4 °F 82% 30.14 in 10.0 mi Calm Calm - N/A   Clear
9:33 PM 50.0 °F 46.4 °F 87% 30.14 in 10.0 mi Calm Calm - N/A   Clear
9:53 PM 48.2 °F 46.4 °F 93% 30.14 in 10.0 mi Calm Calm - N/A   Clear
10:13 PM 48.2 °F 44.6 °F 87% 30.14 in 10.0 mi Calm Calm - N/A   Clear
10:33 PM 46.4 °F 44.6 °F 93% 30.13 in 10.0 mi Calm Calm - N/A   Clear
10:53 PM 46.4 °F 44.6 °F 93% 30.13 in 10.0 mi Calm Calm - N/A   Clear
11:13 PM 46.4 °F 44.6 °F 93% 30.13 in 10.0 mi Calm Calm - N/A   Clear
11:33 PM 46.4 °F 44.6 °F 93% 30.12 in 10.0 mi Calm Calm - N/A   Clear
11:53 PM 46.4 °F 44.6 °F 93% 30.12 in 10.0 mi Calm Calm - N/A   Clear